McCook, NE

4:40 PM CST on December 02, 2016 (GMT -0600)
McCook Municipal

Weather History for KMCK - October, 2014

Change the Weather History Date:

Monday, October 27, 2014

  Actual Average Record
Temperature  
Mean Temperature 51 °F 47 °F  
Max Temperature 66 °F 62 °F 86 °F (2016)
Min Temperature 35 °F 32 °F 11 °F (1997)
Degree Days  
Heating Degree Days 11    
Growing Degree Days 4 (Base 50)    
Moisture  
Dew Point 35 °F    
Average Humidity 50    
Maximum Humidity 74    
Minimum Humidity 28    
Precipitation  
Precipitation 0.00 in 0.05 in 0.50 in (2002)
Month to date precipitation 0.27 1.60  
Year to date precipitation 22.90 20.75  
Sea Level Pressure  
Sea Level Pressure 29.81 in    
Wind  
Wind Speed 12 mph (NW)    
Max Wind Speed 26 mph    
Max Gust Speed 39 mph    
Visibility 10 miles    
Events      
T = Trace of Precipitation, MM = Missing Value Source: NWS Daily Summary

Daily Weather History Graph

Daily Weather History Graph

Search for Another Location

Airport or City:

Trip Planner

Search our weather history database for the weather conditions in past years. The results will help you decide how hot, cold, wet, or windy it might be!

Date:

Astronomy

Oct. 27, 2014 Rise Set
Actual Time 8:06 AM CDT 6:45 PM CDT
Civil Twilight 7:38 AM CDT 7:13 PM CDT
Nautical Twilight 7:06 AM CDT 7:45 PM CDT
Astronomical Twilight 6:34 AM CDT 8:16 PM CDT
Moon 11:43 AM CDT (10/27) 9:53 PM CDT (10/27)
Length of Visible Light 11h 35m
Length of Day
10h 39m
Waxing Crescent, 15% of the Moon is Illuminated
Oct 27
Waxing Crescent
Oct 30
First Quarter
Nov 6
Full
Nov 14
Last Quarter
Nov 22
New

Hourly Weather History & Observations

Time (CDT) Temp. Windchill Dew Point Humidity Pressure Visibility Wind Dir Wind Speed Gust Speed Precip Events Conditions
12:53 AM 53.1 °F - 41.0 °F 64% 29.57 in 10.0 mi North 5.8 mph - N/A   Clear
1:53 AM 53.1 °F - 42.1 °F 66% 29.57 in 10.0 mi NNE 4.6 mph - N/A   Clear
2:53 AM 50.0 °F - 39.9 °F 68% 29.58 in 10.0 mi Calm Calm - N/A   Clear
3:53 AM 61.0 °F - 37.9 °F 42% 29.59 in 10.0 mi North 20.7 mph - 0.00 in   Clear
4:53 AM 57.9 °F - 39.0 °F 49% 29.65 in 10.0 mi NNW 25.3 mph 39.1 mph N/A   Clear
5:53 AM 55.0 °F - 39.9 °F 57% 29.68 in 10.0 mi NNW 23.0 mph 34.5 mph N/A   Clear
6:53 AM 53.1 °F - 39.9 °F 61% 29.72 in 10.0 mi NNW 19.6 mph 26.5 mph N/A   Clear
7:53 AM 50.0 °F - 39.0 °F 66% 29.74 in 10.0 mi NNW 13.8 mph - N/A   Clear
8:53 AM 46.9 °F - 39.0 °F 74% 29.76 in 10.0 mi WNW 6.9 mph - N/A   Clear
9:53 AM 53.1 °F - 39.9 °F 61% 29.78 in 10.0 mi WNW 11.5 mph - N/A   Clear
10:53 AM 60.1 °F - 37.9 °F 44% 29.78 in 10.0 mi NNW 19.6 mph 26.5 mph N/A   Clear
11:53 AM 64.4 °F - 33.8 °F 32% 29.81 in 10.0 mi NW 20.7 mph 28.8 mph N/A   Clear
12:53 PM 66.0 °F - 32.0 °F 28% 29.80 in 10.0 mi NW 26.5 mph 31.1 mph N/A   Clear
1:53 PM 64.9 °F - 32.0 °F 29% 29.82 in 10.0 mi NW 26.5 mph 29.9 mph N/A   Clear
2:53 PM 62.1 °F - 33.1 °F 34% 29.84 in 10.0 mi NNW 24.2 mph - N/A   Overcast
3:53 PM 60.1 °F - 30.9 °F 33% 29.84 in 10.0 mi NNW 17.3 mph 26.5 mph N/A   Mostly Cloudy
4:53 PM 59.0 °F - 32.0 °F 36% 29.87 in 10.0 mi NNW 15.0 mph - N/A   Overcast
5:53 PM 57.9 °F - 32.0 °F 37% 29.91 in 10.0 mi NNW 10.4 mph - N/A   Overcast
6:53 PM 55.0 °F - 33.1 °F 43% 29.94 in 10.0 mi North 5.8 mph - N/A   Mostly Cloudy
7:53 PM 52.0 °F - 32.0 °F 47% 29.99 in 10.0 mi North 5.8 mph - N/A   Partly Cloudy
8:53 PM 51.1 °F - 30.0 °F 44% 30.03 in 10.0 mi NW 4.6 mph - N/A   Partly Cloudy
9:53 PM 50.0 °F - 30.0 °F 46% 30.04 in 10.0 mi West 5.8 mph - N/A   Clear
10:53 PM 42.1 °F 38.4 °F 30.0 °F 62% 30.06 in 10.0 mi West 5.8 mph - N/A   Clear
11:53 PM 37.9 °F 32.7 °F 30.0 °F 73% 30.07 in 10.0 mi WSW 6.9 mph - N/A   Clear